| time (UTC) | temp F | wind direction | speed knots | gust knots | rain 1hr in | rain 24hr in | rain mn in | humidity % | barometer mb |
| 20260901024004 | 70 | 51 | 2.6 | 5.2 | 0.00 | 0.00 | 0.00 | 80 | 1011.2 |
| 20260901023505 | 70 | 39 | 2.6 | 6.1 | 0.00 | 0.00 | 0.00 | 80 | 1011.2 |
| 20260901022504 | 71 | 55 | 1.7 | 5.2 | 0.00 | 0.00 | 0.00 | 79 | 1011.1 |
| 20260901022004 | 71 | 42 | 2.6 | 4.3 | 0.00 | 0.00 | 0.00 | 79 | 1011.1 |
| 20260901021505 | 72 | 72 | 1.7 | 5.2 | 0.00 | 0.00 | 0.00 | 78 | 1011.0 |
| 20260901021003 | 72 | 46 | 1.7 | 6.1 | 0.00 | 0.00 | 0.00 | 77 | 1011.0 |
| 20260901020504 | 72 | 42 | 2.6 | 6.1 | 0.00 | 0.00 | 0.00 | 77 | 1010.9 |
| 20260901020004 | 73 | 42 | 3.5 | 5.2 | 0.00 | 0.00 | 0.00 | 76 | 1010.9 |
| 20260901014504 | 74 | 42 | 2.6 | 4.3 | 0.00 | 0.00 | 0.00 | 74 | 1010.7 |
| 20260901014004 | 74 | 46 | 2.6 | 2.6 | 0.00 | 0.00 | 0.00 | 73 | 1010.6 |
| 20260901013506 | 74 | 22 | 1.7 | 4.3 | 0.00 | 0.00 | 0.00 | 73 | 1010.6 |
| 20260901013004 | 74 | 25 | 2.6 | 4.3 | 0.00 | 0.00 | 0.00 | 73 | 1010.6 |
| 20260901012504 | 75 | 43 | 2.6 | 4.3 | 0.00 | 0.00 | 0.00 | 73 | 1010.5 |
| 20260901012004 | 75 | 5 | 0.9 | 4.3 | 0.00 | 0.00 | 0.00 | 72 | 1010.4 |
| 20260901011506 | 76 | 39 | 1.7 | 4.3 | 0.00 | 0.00 | 0.00 | 70 | 1010.3 |
| 20260901005004 | 79 | 37 | 0.9 | 2.6 | 0.00 | 0.00 | 0.00 | 66 | 1010.2 |
| 20260901004005 | 80 | 37 | 1.7 | 2.6 | 0.00 | 0.00 | 0.00 | 62 | 1010.4 |
| 20260901003504 | 80 | 36 | 0.9 | 2.6 | 0.00 | 0.00 | 0.00 | 62 | 1010.4 |
| 20260901003004 | 81 | 36 | 1.7 | 2.6 | 0.00 | 0.00 | 0.00 | 61 | 1010.4 |
| 20260901002504 | 81 | 24 | 0.9 | 2.6 | 0.00 | 0.00 | 0.00 | 60 | 1010.3 |
| 20260901002005 | 82 | 27 | 0.9 | 2.6 | 0.00 | 0.00 | 0.00 | 59 | 1010.4 |
| 20260901001504 | 82 | 15 | 1.7 | 2.6 | 0.00 | 0.00 | 0.00 | 57 | 1010.4 |
| 20260901001004 | 82 | 29 | 0.9 | 2.6 | 0.00 | 0.00 | 0.00 | 58 | 1010.3 |
| 20260901000504 | 82 | 29 | 0.9 | 2.6 | 0.00 | 0.00 | 0.00 | 58 | 1010.4 |
| 20260831235503 | 83 | 13 | 0.9 | 2.6 | 0.00 | 0.00 | 0.00 | 56 | 1010.3 |
| 20260831235004 | 83 | 5 | 0.9 | 2.6 | 0.00 | 0.00 | 0.00 | 54 | 1010.4 |
| 20260831234005 | 84 | 13 | 1.7 | 4.3 | 0.00 | 0.00 | 0.00 | 54 | 1010.3 |
| 20260831233004 | 84 | 24 | 1.7 | 5.2 | 0.00 | 0.00 | 0.00 | 53 | 1010.4 |
| 20260831232005 | 84 | 42 | 1.7 | 7.0 | 0.00 | 0.00 | 0.00 | 51 | 1010.4 |
| 20260831231504 | 85 | 20 | 1.7 | 7.0 | 0.00 | 0.00 | 0.00 | 51 | 1010.4 |
| 20260831230504 | 85 | 10 | 2.6 | 5.2 | 0.00 | 0.00 | 0.00 | 49 | 1010.4 |
| 20260831230005 | 85 | 18 | 2.6 | 5.2 | 0.00 | 0.00 | 0.00 | 49 | 1010.4 |
| 20260831225503 | 86 | 351 | 2.6 | 5.2 | 0.00 | 0.00 | 0.00 | 48 | 1010.4 |
| 20260831225003 | 86 | 356 | 2.6 | 7.0 | 0.00 | 0.00 | 0.00 | 47 | 1010.5 |
| 20260831224503 | 86 | 53 | 2.6 | 7.0 | 0.00 | 0.00 | 0.00 | 47 | 1010.5 |
| 20260831224006 | 87 | 19 | 2.6 | 6.1 | 0.00 | 0.00 | 0.00 | 47 | 1010.5 |
| 20260831223504 | 87 | 20 | 2.6 | 6.1 | 0.00 | 0.00 | 0.00 | 46 | 1010.5 |
| 20260831223004 | 87 | 14 | 2.6 | 5.2 | 0.00 | 0.00 | 0.00 | 46 | 1010.5 |
| 20260831222005 | 87 | 12 | 2.6 | 6.1 | 0.00 | 0.00 | 0.00 | 46 | 1010.5 |
| 20260831221503 | 88 | 11 | 1.7 | 6.1 | 0.00 | 0.00 | 0.00 | 46 | 1010.5 |
| 20260831221004 | 89 | 16 | 2.6 | 5.2 | 0.00 | 0.00 | 0.00 | 45 | 1010.5 |
| 20260831220006 | 89 | 306 | 2.6 | 5.2 | 0.00 | 0.00 | 0.00 | 43 | 1010.5 |
| 20260831214006 | 90 | 338 | 2.6 | 6.1 | 0.00 | 0.00 | 0.00 | 43 | 1010.5 |
| 20260831213504 | 90 | 21 | 1.7 | 6.1 | 0.00 | 0.00 | 0.00 | 42 | 1010.5 |
| 20260831213003 | 90 | 339 | 2.6 | 7.8 | 0.00 | 0.00 | 0.00 | 43 | 1010.5 |
| 20260831212503 | 90 | 12 | 2.6 | 7.8 | 0.00 | 0.00 | 0.00 | 40 | 1010.6 |
| 20260831212005 | 90 | 321 | 2.6 | 6.1 | 0.00 | 0.00 | 0.00 | 43 | 1010.6 |
| 20260831211003 | 90 | 17 | 2.6 | 5.2 | 0.00 | 0.00 | 0.00 | 42 | 1010.7 |
| 20260831210504 | 90 | 15 | 2.6 | 5.2 | 0.00 | 0.00 | 0.00 | 41 | 1010.7 |
| 20260831210006 | 90 | 25 | 1.7 | 2.6 | 0.00 | 0.00 | 0.00 | 36 | 1010.8 |
| 20260831205504 | 90 | 300 | 1.7 | 4.3 | 0.00 | 0.00 | 0.00 | 35 | 1010.9 |
| 20260831204005 | 88 | 231 | 2.6 | 6.1 | 0.00 | 0.00 | 0.00 | 37 | 1010.9 |
| 20260831203504 | 88 | 253 | 3.5 | 6.1 | 0.00 | 0.00 | 0.00 | 40 | 1011.0 |
| 20260831203003 | 88 | 295 | 1.7 | 2.6 | 0.00 | 0.00 | 0.00 | 37 | 1011.1 |
| 20260831202504 | 89 | 227 | 1.7 | 2.6 | 0.00 | 0.00 | 0.00 | 37 | 1011.1 |
| 20260831202005 | 89 | 265 | 2.6 | 5.2 | 0.00 | 0.00 | 0.00 | 36 | 1011.2 |
| 20260831201503 | 89 | 320 | 2.6 | 8.7 | 0.00 | 0.00 | 0.00 | 36 | 1011.2 |
| 20260831201005 | 89 | 288 | 4.3 | 8.7 | 0.00 | 0.00 | 0.00 | 36 | 1011.2 |
| 20260831200005 | 89 | 284 | 2.6 | 6.1 | 0.00 | 0.00 | 0.00 | 37 | 1011.2 |
| 20260831195503 | 88 | 345 | 1.7 | 6.1 | 0.00 | 0.00 | 0.00 | 37 | 1011.2 |
| 20260831193504 | 88 | 301 | 4.3 | 8.7 | 0.00 | 0.00 | 0.00 | 41 | 1011.3 |
| 20260831193004 | 88 | 296 | 5.2 | 10.4 | 0.00 | 0.00 | 0.00 | 42 | 1011.3 |
| 20260831192504 | 87 | 298 | 5.2 | 10.4 | 0.00 | 0.00 | 0.00 | 42 | 1011.3 |
| 20260831192005 | 87 | 275 | 4.3 | 10.4 | 0.00 | 0.00 | 0.00 | 44 | 1011.3 |
| 20260831191504 | 87 | 256 | 6.1 | 10.4 | 0.00 | 0.00 | 0.00 | 43 | 1011.3 |
| 20260831190503 | 87 | 320 | 5.2 | 7.0 | 0.00 | 0.00 | 0.00 | 45 | 1011.3 |
| 20260831190005 | 87 | 336 | 2.6 | 7.0 | 0.00 | 0.00 | 0.00 | 42 | 1011.3 |
| 20260831185004 | 87 | 332 | 4.3 | 8.7 | 0.00 | 0.00 | 0.00 | 45 | 1011.2 |
| 20260831184503 | 87 | 273 | 5.2 | 8.7 | 0.00 | 0.00 | 0.00 | 47 | 1011.2 |
| 20260831183504 | 86 | 267 | 4.3 | 7.0 | 0.00 | 0.00 | 0.00 | 43 | 1011.2 |
| 20260831183004 | 86 | 275 | 3.5 | 6.1 | 0.00 | 0.00 | 0.00 | 43 | 1011.3 |
| 20260831182503 | 86 | 19 | 2.6 | 5.2 | 0.00 | 0.00 | 0.00 | 38 | 1011.3 |
| 20260831182005 | 86 | 311 | 2.6 | 5.2 | 0.00 | 0.00 | 0.00 | 40 | 1011.3 |
| 20260831181504 | 86 | 304 | 0.9 | 6.1 | 0.00 | 0.00 | 0.00 | 43 | 1011.3 |
| 20260831181004 | 86 | 298 | 3.5 | 6.1 | 0.00 | 0.00 | 0.00 | 45 | 1011.4 |
| 20260831180005 | 86 | 268 | 3.5 | 7.0 | 0.00 | 0.00 | 0.00 | 46 | 1011.3 |
| 20260831174504 | 85 | 291 | 1.7 | 5.2 | 0.00 | 0.00 | 0.00 | 51 | 1011.3 |
| 20260831174006 | 84 | 42 | 1.7 | 5.2 | 0.00 | 0.00 | 0.00 | 50 | 1011.3 |
| 20260831173504 | 84 | 326 | 1.7 | 5.2 | 0.00 | 0.00 | 0.00 | 54 | 1011.4 |
| 20260831173004 | 84 | 343 | 1.7 | 5.2 | 0.00 | 0.00 | 0.00 | 53 | 1011.4 |
| 20260831172504 | 83 | 328 | 2.6 | 5.2 | 0.00 | 0.00 | 0.00 | 59 | 1011.4 |
| 20260831172005 | 82 | 336 | 1.7 | 5.2 | 0.00 | 0.00 | 0.00 | 56 | 1011.5 |
| 20260831171004 | 81 | 282 | 2.6 | 5.2 | 0.00 | 0.00 | 0.00 | 60 | 1011.6 |
| 20260831170504 | 80 | 300 | 1.7 | 5.2 | 0.00 | 0.00 | 0.00 | 60 | 1011.6 |
| 20260831170005 | 80 | 304 | 2.6 | 6.1 | 0.00 | 0.00 | 0.00 | 62 | 1011.7 |
| 20260831165504 | 80 | 1 | 2.6 | 6.1 | 0.00 | 0.00 | 0.00 | 62 | 1011.7 |
| 20260831165003 | 80 | 326 | 3.5 | 6.1 | 0.00 | 0.00 | 0.00 | 66 | 1011.6 |
| 20260831164504 | 79 | 324 | 2.6 | 7.8 | 0.00 | 0.00 | 0.00 | 63 | 1011.6 |
| 20260831164005 | 79 | 295 | 4.3 | 7.8 | 0.00 | 0.00 | 0.00 | 67 | 1011.7 |
| 20260831163504 | 78 | 291 | 2.6 | 6.1 | 0.00 | 0.00 | 0.00 | 68 | 1011.7 |
| 20260831162504 | 77 | 317 | 2.6 | 6.1 | 0.00 | 0.00 | 0.00 | 69 | 1011.8 |
| 20260831162006 | 76 | 25 | 1.7 | 6.1 | 0.00 | 0.00 | 0.00 | 71 | 1011.8 |
| 20260831161504 | 76 | 342 | 3.5 | 7.0 | 0.00 | 0.00 | 0.00 | 72 | 1011.7 |
| 20260831161003 | 75 | 328 | 4.3 | 7.8 | 0.00 | 0.00 | 0.00 | 73 | 1011.7 |
| 20260831160505 | 75 | 347 | 2.6 | 7.8 | 0.00 | 0.00 | 0.00 | 73 | 1011.8 |
| 20260831160003 | 74 | 317 | 4.3 | 7.8 | 0.00 | 0.00 | 0.00 | 74 | 1011.7 |
| 20260831154505 | 71 | 318 | 2.6 | 7.0 | 0.00 | 0.00 | 0.00 | 78 | 1011.8 |
| 20260831154004 | 70 | 323 | 3.5 | 7.0 | 0.00 | 0.00 | 0.00 | 80 | 1011.8 |
| 20260831153504 | 70 | 320 | 2.6 | 7.0 | 0.00 | 0.00 | 0.00 | 79 | 1011.6 |
| 20260831153004 | 70 | 333 | 4.3 | 6.1 | 0.00 | 0.00 | 0.00 | 79 | 1011.5 |
| 20260831152505 | 70 | 343 | 4.3 | 8.7 | 0.00 | 0.00 | 0.00 | 79 | 1011.4 |
| 20260831151503 | 70 | 313 | 4.3 | 8.7 | 0.00 | 0.00 | 0.00 | 79 | 1011.4 |
| 20260831151005 | 70 | 324 | 3.5 | 7.0 | 0.00 | 0.00 | 0.00 | 80 | 1011.4 |
| 20260831150503 | 70 | 326 | 2.6 | 7.0 | 0.00 | 0.00 | 0.00 | 80 | 1011.3 |
| 20260831145504 | 68 | 327 | 3.5 | 7.8 | 0.00 | 0.00 | 0.00 | 82 | 1011.3 |
| 20260831144504 | 67 | 337 | 4.3 | 8.7 | 0.00 | 0.00 | 0.00 | 84 | 1011.2 |
| 20260831144004 | 66 | 330 | 5.2 | 10.4 | 0.00 | 0.00 | 0.00 | 85 | 1011.2 |
| 20260831143004 | 65 | 329 | 5.2 | 10.4 | 0.00 | 0.00 | 0.00 | 87 | 1011.1 |
| 20260831142004 | 64 | 326 | 7.8 | 10.4 | 0.00 | 0.00 | 0.00 | 89 | 1011.2 |
| 20260831141504 | 64 | 324 | 5.2 | 12.2 | 0.00 | 0.00 | 0.00 | 90 | 1011.1 |
| 20260831141004 | 63 | 322 | 6.1 | 12.2 | 0.00 | 0.00 | 0.00 | 90 | 1011.1 |
| 20260831140504 | 63 | 313 | 5.2 | 10.4 | 0.00 | 0.00 | 0.00 | 90 | 1011.0 |
| 20260831140005 | 63 | 324 | 5.2 | 8.7 | 0.00 | 0.00 | 0.00 | 91 | 1011.2 |
| 20260831135504 | 63 | 323 | 6.1 | 8.7 | 0.00 | 0.00 | 0.00 | 92 | 1011.2 |
| 20260831135004 | 62 | 316 | 5.2 | 8.7 | 0.00 | 0.00 | 0.00 | 92 | 1011.2 |
| 20260831134004 | 62 | 315 | 4.3 | 8.7 | 0.00 | 0.00 | 0.00 | 93 | 1011.0 |
| 20260831133504 | 61 | 310 | 4.3 | 8.7 | 0.00 | 0.00 | 0.00 | 93 | 1011.0 |
| 20260831133003 | 61 | 308 | 3.5 | 7.8 | 0.00 | 0.00 | 0.00 | 92 | 1010.9 |
| 20260831132504 | 61 | 312 | 4.3 | 7.8 | 0.00 | 0.00 | 0.00 | 92 | 1010.8 |
| 20260831132004 | 61 | 301 | 5.2 | 7.8 | 0.00 | 0.00 | 0.00 | 92 | 1010.7 |
| 20260831131506 | 61 | 300 | 4.3 | 7.8 | 0.00 | 0.00 | 0.00 | 92 | 1010.7 |
| 20260831131004 | 61 | 305 | 6.1 | 7.8 | 0.00 | 0.00 | 0.00 | 92 | 1010.6 |
| 20260831130504 | 61 | 295 | 5.2 | 7.8 | 0.00 | 0.00 | 0.00 | 92 | 1010.5 |
| 20260831130004 | 62 | 300 | 4.3 | 8.7 | 0.00 | 0.00 | 0.00 | 92 | 1010.4 |
| 20260831125504 | 62 | 309 | 5.2 | 8.7 | 0.00 | 0.00 | 0.00 | 92 | 1010.1 |
| 20260831124504 | 62 | 310 | 5.2 | 8.7 | 0.00 | 0.00 | 0.00 | 93 | 1010.0 |
| 20260831124004 | 62 | 295 | 5.2 | 7.8 | 0.00 | 0.00 | 0.00 | 93 | 1010.1 |
| 20260831123503 | 62 | 297 | 5.2 | 8.7 | 0.00 | 0.00 | 0.00 | 93 | 1009.9 |
| 20260831123004 | 62 | 296 | 4.3 | 8.7 | 0.00 | 0.00 | 0.00 | 93 | 1009.8 |
| 20260831122506 | 62 | 301 | 5.2 | 10.4 | 0.00 | 0.00 | 0.00 | 93 | 1009.7 |
| 20260831121505 | 63 | 291 | 6.1 | 8.7 | 0.00 | 0.00 | 0.00 | 93 | 1009.5 |
| 20260831120504 | 63 | 301 | 6.1 | 10.4 | 0.00 | 0.00 | 0.00 | 93 | 1009.2 |
| 20260831120004 | 63 | 301 | 7.8 | 10.4 | 0.00 | 0.00 | 0.00 | 93 | 1009.1 |
| 20260831115505 | 63 | 296 | 5.2 | 7.8 | 0.00 | 0.00 | 0.00 | 93 | 1009.2 |
| 20260831115004 | 63 | 288 | 4.3 | 7.8 | 0.00 | 0.00 | 0.00 | 93 | 1009.1 |
| 20260831114505 | 63 | 289 | 4.3 | 7.8 | 0.00 | 0.00 | 0.00 | 93 | 1009.0 |
| 20260831114004 | 64 | 294 | 4.3 | 10.4 | 0.00 | 0.00 | 0.00 | 93 | 1008.7 |
| 20260831113505 | 64 | 295 | 5.2 | 10.4 | 0.00 | 0.00 | 0.00 | 93 | 1008.6 |
| 20260831112505 | 64 | 306 | 5.2 | 8.7 | 0.00 | 0.00 | 0.00 | 92 | 1008.4 |
| 20260831111505 | 65 | 300 | 5.2 | 8.7 | 0.00 | 0.00 | 0.00 | 92 | 1008.5 |
| 20260831111004 | 65 | 295 | 5.2 | 7.8 | 0.00 | 0.00 | 0.00 | 92 | 1008.4 |
| 20260831110505 | 65 | 297 | 5.2 | 7.8 | 0.00 | 0.00 | 0.00 | 92 | 1008.4 |
| 20260831110003 | 66 | 298 | 5.2 | 7.8 | 0.00 | 0.00 | 0.00 | 92 | 1008.3 |
| 20260831105004 | 66 | 284 | 4.3 | 7.0 | 0.00 | 0.00 | 0.00 | 92 | 1008.3 |
| 20260831103504 | 67 | 310 | 4.3 | 7.8 | 0.00 | 0.00 | 0.00 | 92 | 1007.8 |
| 20260831103003 | 67 | 313 | 4.3 | 8.7 | 0.00 | 0.00 | 0.00 | 92 | 1007.8 |
| 20260831101504 | 69 | 292 | 6.1 | 10.4 | 0.00 | 0.00 | 0.00 | 92 | 1007.6 |
| 20260831101005 | 69 | 292 | 6.1 | 10.4 | 0.00 | 0.00 | 0.00 | 92 | 1007.6 |
| 20260831100504 | 69 | 279 | 5.2 | 6.1 | 0.00 | 0.00 | 0.00 | 92 | 1007.5 |
| 20260831100004 | 69 | 296 | 1.7 | 2.6 | 0.00 | 0.00 | 0.00 | 92 | 1007.3 |
| 20260831095004 | 69 | 296 | 2.6 | 2.6 | 0.00 | 0.00 | 0.00 | 90 | 1007.2 |
| 20260831094506 | 70 | 296 | 1.7 | 2.6 | 0.00 | 0.00 | 0.00 | 90 | 1007.1 |
| 20260831094003 | 71 | 346 | 1.7 | 2.6 | 0.00 | 0.00 | 0.00 | 91 | 1006.8 |
| 20260831093504 | 71 | 346 | 1.7 | 4.3 | 0.00 | 0.00 | 0.00 | 92 | 1006.6 |
| 20260831093004 | 71 | 342 | 1.7 | 4.3 | 0.00 | 0.00 | 0.00 | 91 | 1006.5 |
| 20260831092004 | 71 | 353 | 2.6 | 4.3 | 0.00 | 0.00 | 0.00 | 91 | 1006.2 |
| 20260831091004 | 72 | 14 | 1.7 | 2.6 | 0.00 | 0.00 | 0.00 | 91 | 1006.2 |
| 20260831090505 | 72 | 0 | 1.7 | 6.1 | 0.00 | 0.00 | 0.00 | 91 | 1006.1 |
| 20260831090004 | 72 | 7 | 2.6 | 6.1 | 0.00 | 0.00 | 0.00 | 91 | 1006.2 |
| 20260831085506 | 72 | 11 | 2.6 | 7.8 | 0.00 | 0.00 | 0.00 | 91 | 1006.2 |
| 20260831084006 | 72 | 355 | 5.2 | 12.2 | 0.00 | 0.00 | 0.00 | 92 | 1006.2 |
| 20260831083503 | 72 | 346 | 6.1 | 13.0 | 0.00 | 0.00 | 0.00 | 92 | 1006.1 |
| 20260831083005 | 72 | 348 | 7.0 | 13.0 | 0.00 | 0.00 | 0.00 | 92 | 1006.1 |
| 20260831082504 | 72 | 325 | 6.1 | 13.0 | 0.00 | 0.00 | 0.00 | 92 | 1006.1 |
| 20260831081504 | 72 | 314 | 7.0 | 13.9 | 0.00 | 0.00 | 0.00 | 92 | 1005.9 |
| 20260831081004 | 71 | 328 | 7.0 | 11.3 | 0.00 | 0.00 | 0.00 | 92 | 1005.8 |
| 20260831080505 | 71 | 324 | 6.1 | 13.9 | 0.00 | 0.00 | 0.00 | 92 | 1005.8 |
| 20260831080004 | 70 | 319 | 7.8 | 13.9 | 0.00 | 0.00 | 0.00 | 91 | 1005.6 |
| 20260831075503 | 70 | 321 | 7.0 | 11.3 | 0.00 | 0.00 | 0.00 | 91 | 1005.6 |
| 20260831075004 | 69 | 311 | 5.2 | 10.4 | 0.00 | 0.00 | 0.00 | 89 | 1005.5 |
| 20260831074503 | 68 | 307 | 7.0 | 10.4 | 0.00 | 0.00 | 0.00 | 87 | 1005.5 |
| 20260831073503 | 69 | 276 | 2.6 | 4.3 | 0.00 | 0.00 | 0.00 | 86 | 1004.9 |
| 20260831073004 | 69 | 300 | 2.6 | 4.3 | 0.00 | 0.00 | 0.00 | 86 | 1004.8 |
| 20260831072504 | 69 | 279 | 1.7 | 4.3 | 0.00 | 0.00 | 0.00 | 86 | 1004.8 |
| 20260831071504 | 69 | 242 | 1.7 | 2.6 | 0.00 | 0.00 | 0.00 | 85 | 1004.7 |
| 20260831071004 | 69 | 242 | 1.7 | 2.6 | 0.00 | 0.00 | 0.00 | 85 | 1004.7 |
| 20260831070504 | 69 | 242 | 1.7 | 2.6 | 0.00 | 0.00 | 0.00 | 85 | 1004.8 |
| 20260831070003 | 70 | 242 | 0.9 | 2.6 | 0.00 | 0.00 | 0.00 | 85 | 1004.8 |
| 20260831065505 | 70 | 169 | 1.7 | 2.6 | 0.00 | 0.00 | 0.00 | 84 | 1004.8 |
| 20260831065004 | 70 | 240 | 2.6 | 4.3 | 0.00 | 0.00 | 0.00 | 85 | 1004.7 |
| 20260831064504 | 70 | 224 | 2.6 | 4.3 | 0.00 | 0.00 | 0.00 | 84 | 1004.8 |
| 20260831064004 | 71 | 182 | 4.3 | 4.3 | 0.00 | 0.00 | 0.00 | 82 | 1004.4 |
| 20260831063504 | 72 | 248 | 2.6 | 2.6 | 0.00 | 0.00 | 0.00 | 81 | 1004.5 |
| 20260831063004 | 72 | 248 | 2.6 | 2.6 | 0.00 | 0.00 | 0.00 | 80 | 1004.5 |
| 20260831062503 | 73 | 248 | 2.6 | 4.3 | 0.00 | 0.00 | 0.00 | 81 | 1004.5 |
| 20260831062004 | 73 | 248 | 2.6 | 7.8 | 0.00 | 0.00 | 0.00 | 80 | 1004.6 |
| 20260831061504 | 73 | 246 | 5.2 | 7.8 | 0.00 | 0.00 | 0.00 | 80 | 1004.7 |
| 20260831061005 | 73 | 229 | 5.2 | 13.9 | 0.00 | 0.00 | 0.00 | 80 | 1004.9 |
| 20260831060503 | 73 | 256 | 5.2 | 13.9 | 0.00 | 0.00 | 0.00 | 81 | 1004.9 |
| 20260831060004 | 73 | 217 | 6.1 | 7.8 | 0.00 | 0.00 | 0.00 | 82 | 1004.7 |
| 20260831055504 | 73 | 214 | 6.1 | 7.8 | 0.00 | 0.00 | 0.00 | 82 | 1004.6 |
| 20260831054506 | 73 | 169 | 5.2 | 10.4 | 0.00 | 0.00 | 0.00 | 82 | 1004.0 |
| 20260831053504 | 73 | 168 | 6.1 | 7.8 | 0.00 | 0.00 | 0.00 | 82 | 1004.1 |
| 20260831052503 | 73 | 165 | 5.2 | 7.0 | 0.00 | 0.00 | 0.00 | 81 | 1004.1 |
| 20260831052004 | 73 | 164 | 5.2 | 7.0 | 0.00 | 0.00 | 0.00 | 80 | 1004.2 |
| 20260831051504 | 74 | 166 | 4.3 | 6.1 | 0.00 | 0.00 | 0.00 | 80 | 1004.1 |
| 20260831051005 | 74 | 154 | 4.3 | 6.1 | 0.00 | 0.00 | 0.00 | 80 | 1004.2 |
| 20260831050504 | 74 | 159 | 4.3 | 6.1 | 0.00 | 0.00 | 0.00 | 79 | 1004.1 |
| 20260831045504 | 74 | 158 | 5.2 | 6.1 | 0.00 | 0.00 | 0.00 | 79 | 1004.1 |
| 20260831045005 | 74 | 167 | 4.3 | 6.1 | 0.00 | 0.00 | 0.00 | 79 | 1004.1 |
| 20260831044504 | 74 | 151 | 4.3 | 6.1 | 0.00 | 0.00 | 0.00 | 79 | 1004.2 |
| 20260831044004 | 73 | 157 | 4.3 | 6.1 | 0.00 | 0.00 | 0.00 | 79 | 1004.2 |
| 20260831043504 | 73 | 159 | 4.3 | 6.1 | 0.00 | 0.00 | 0.00 | 78 | 1004.3 |
| 20260831043005 | 73 | 152 | 3.5 | 6.1 | 0.00 | 0.00 | 0.00 | 76 | 1004.2 |
| 20260831042504 | 73 | 145 | 5.2 | 7.0 | 0.00 | 0.00 | 0.00 | 75 | 1004.1 |
| 20260831042004 | 73 | 142 | 3.5 | 7.0 | 0.00 | 0.00 | 0.00 | 75 | 1004.1 |
| 20260831041503 | 73 | 160 | 4.3 | 7.0 | 0.00 | 0.00 | 0.00 | 75 | 1004.2 |
| 20260831041005 | 73 | 166 | 4.3 | 7.0 | 0.00 | 0.00 | 0.00 | 75 | 1004.2 |
| 20260831040504 | 73 | 157 | 2.6 | 6.1 | 0.00 | 0.00 | 0.00 | 75 | 1004.1 |
| 20260831040004 | 73 | 148 | 2.6 | 6.1 | 0.00 | 0.00 | 0.00 | 75 | 1004.1 |
| 20260831035504 | 73 | 167 | 5.2 | 6.1 | 0.00 | 0.00 | 0.00 | 75 | 1004.2 |
| 20260831035005 | 73 | 172 | 5.2 | 6.1 | 0.00 | 0.00 | 0.00 | 75 | 1004.2 |
| 20260831034504 | 73 | 176 | 5.2 | 6.1 | 0.00 | 0.00 | 0.00 | 75 | 1004.1 |
| 20260831033504 | 73 | 175 | 5.2 | 7.0 | 0.00 | 0.00 | 0.00 | 75 | 1004.0 |
| 20260831033004 | 73 | 181 | 5.2 | 7.0 | 0.00 | 0.00 | 0.00 | 75 | 1004.0 |
| 20260831032504 | 73 | 175 | 5.2 | 7.0 | 0.00 | 0.00 | 0.00 | 75 | 1003.9 |
| 20260831032004 | 73 | 174 | 6.1 | 6.1 | 0.00 | 0.00 | 0.00 | 75 | 1003.9 |
| 20260831031505 | 73 | 177 | 4.3 | 6.1 | 0.00 | 0.00 | 0.00 | 75 | 1003.9 |
| 20260831030503 | 73 | 181 | 5.2 | 7.0 | 0.00 | 0.00 | 0.00 | 74 | 1003.9 |
| 20260831030004 | 74 | 186 | 5.2 | 7.0 | 0.00 | 0.00 | 0.00 | 73 | 1003.9 |
| 20260831025505 | 74 | 185 | 6.1 | 7.0 | 0.00 | 0.00 | 0.00 | 72 | 1003.9 |